| time (UTC) | temp F | wind direction | speed MPH | gust MPH | rain 1hr in | rain 24hr in | rain mn in | humidity % | barometer mb |
| 20260901084555 | 66 | 122 | 1.0 | 6.0 | 0.00 | 0.00 | 0.00 | 73 | 1005.9 |
| 20260901083048 | 65 | 145 | 0.0 | 2.0 | 0.00 | 0.00 | 0.00 | 78 | 1005.9 |
| 20260901081548 | 64 | 145 | 1.0 | 5.0 | 0.00 | 0.00 | 0.00 | 78 | 1005.8 |
| 20260901080047 | 65 | 144 | 1.0 | 4.0 | 0.00 | 0.00 | 0.00 | 79 | 1005.8 |
| 20260901074542 | 64 | 105 | 0.0 | 4.0 | 0.00 | 0.00 | 0.00 | 82 | 1005.7 |
| 20260901073039 | 63 | 141 | 0.0 | 1.0 | 0.00 | 0.00 | 0.00 | 84 | 1005.6 |
| 20260901071536 | 63 | 141 | 0.0 | 1.0 | 0.00 | 0.00 | 0.00 | 89 | 1005.5 |
| 20260901070033 | 61 | 141 | 0.0 | 0.0 | 0.00 | 0.00 | 0.00 | 97 | 1005.5 |
| 20260901064538 | 59 | 141 | 0.0 | 0.0 | 0.00 | 0.00 | 0.00 | 98 | 1005.4 |
| 20260901063031 | 59 | 141 | 0.0 | 1.0 | 0.00 | 0.00 | 0.00 | 98 | 1005.3 |
| 20260901061525 | 59 | 141 | 0.0 | 0.0 | 0.00 | 0.00 | 0.00 | 99 | 1005.3 |
| 20260901060021 | 56 | 141 | 0.0 | 0.0 | 0.00 | 0.00 | 0.00 | 99 | 1005.4 |
| 20260901054520 | 55 | 141 | 0.0 | 0.0 | 0.00 | 0.00 | 0.00 | 99 | 1005.2 |
| 20260901053018 | 55 | 141 | 0.0 | 0.0 | 0.00 | 0.00 | 0.00 | 99 | 1005.2 |
| 20260901051516 | 55 | 141 | 0.0 | 0.0 | 0.00 | 0.00 | 0.00 | 99 | 1005.1 |
| 20260901050016 | 54 | 141 | 0.0 | 0.0 | 0.00 | 0.00 | 0.00 | 99 | 1005.1 |
| 20260901044514 | 54 | 141 | 0.0 | 0.0 | 0.00 | 0.00 | 0.00 | 99 | 1005.0 |
| 20260901043016 | 54 | 141 | 0.0 | 0.0 | 0.00 | 0.00 | 0.00 | 99 | 1004.9 |
| 20260901041513 | 54 | 141 | 0.0 | 0.0 | 0.00 | 0.00 | 0.00 | 99 | 1004.8 |
| 20260901040013 | 54 | 141 | 0.0 | 0.0 | 0.00 | 0.00 | 0.00 | 98 | 1004.9 |
| 20260901034515 | 55 | 141 | 0.0 | 0.0 | 0.00 | 0.00 | 0.00 | 99 | 1004.8 |
| 20260901033012 | 55 | 141 | 0.0 | 0.0 | 0.00 | 0.00 | 0.00 | 99 | 1004.9 |
| 20260901031510 | 55 | 141 | 0.0 | 0.0 | 0.00 | 0.00 | 0.00 | 98 | 1004.8 |
| 20260901030010 | 55 | 141 | 0.0 | 1.0 | 0.00 | 0.00 | 0.00 | 99 | 1004.9 |
| 20260901024510 | 55 | 141 | 0.0 | 0.0 | 0.00 | 0.00 | 0.00 | 99 | 1004.9 |
| 20260901023025 | 55 | 141 | 0.0 | 0.0 | 0.00 | 0.00 | 0.00 | 99 | 1004.9 |
| 20260901021515 | 55 | 141 | 0.0 | 0.0 | 0.00 | 0.00 | 0.00 | 98 | 1004.8 |
| 20260901020008 | 55 | 141 | 0.0 | 0.0 | 0.00 | 0.01 | 0.00 | 99 | 1004.7 |
| 20260901014506 | 54 | 141 | 0.0 | 0.0 | 0.00 | 0.01 | 0.00 | 98 | 1004.7 |
| 20260901013006 | 54 | 141 | 0.0 | 0.0 | 0.00 | 0.01 | 0.00 | 98 | 1004.7 |
| 20260901011505 | 54 | 141 | 0.0 | 0.0 | 0.00 | 0.01 | 0.00 | 98 | 1004.6 |
| 20260901010007 | 54 | 141 | 0.0 | 0.0 | 0.00 | 0.01 | 0.00 | 98 | 1004.7 |
| 20260901004504 | 54 | 141 | 0.0 | 0.0 | 0.00 | 0.01 | 0.00 | 98 | 1004.7 |
| 20260901003103 | 54 | 141 | 0.0 | 0.0 | 0.00 | 0.01 | 0.00 | 98 | 1004.6 |
| 20260901001503 | 54 | 141 | 0.0 | 0.0 | 0.00 | 0.01 | 0.00 | 98 | 1004.7 |
| 20260901000002 | 54 | 141 | 0.0 | 0.0 | 0.00 | 0.06 | 0.00 | 98 | 1004.6 |
| 20260831234502 | 55 | 141 | 0.0 | 0.0 | 0.00 | 0.06 | 0.00 | 98 | 1004.5 |
| 20260831233002 | 55 | 141 | 0.0 | 0.0 | 0.00 | 0.06 | 0.00 | 98 | 1004.6 |
| 20260831231609 | 55 | 141 | 0.0 | 0.0 | 0.00 | 0.06 | 0.00 | 98 | 1004.5 |
| 20260831230058 | 55 | 141 | 0.0 | 0.0 | 0.00 | 0.06 | 0.00 | 98 | 1004.7 |
| 20260831224557 | 54 | 141 | 0.0 | 0.0 | 0.00 | 0.06 | 0.00 | 98 | 1004.7 |
| 20260831223056 | 54 | 141 | 0.0 | 0.0 | 0.00 | 0.06 | 0.00 | 98 | 1004.7 |
| 20260831221554 | 54 | 141 | 0.0 | 0.0 | 0.00 | 0.06 | 0.00 | 98 | 1004.7 |
| 20260831220052 | 54 | 141 | 0.0 | 0.0 | 0.00 | 0.06 | 0.06 | 98 | 1004.6 |
| 20260831214600 | 54 | 141 | 0.0 | 0.0 | 0.00 | 0.06 | 0.06 | 98 | 1004.6 |
| 20260831213057 | 53 | 141 | 0.0 | 0.0 | 0.00 | 0.06 | 0.06 | 98 | 1004.6 |
| 20260831211552 | 53 | 141 | 0.0 | 0.0 | 0.00 | 0.06 | 0.06 | 98 | 1004.6 |
| 20260831210050 | 53 | 141 | 0.0 | 0.0 | 0.00 | 0.07 | 0.06 | 97 | 1004.7 |
| 20260831204548 | 53 | 141 | 0.0 | 0.0 | 0.00 | 0.07 | 0.06 | 97 | 1004.6 |
| 20260831203046 | 53 | 141 | 0.0 | 0.0 | 0.00 | 0.07 | 0.06 | 97 | 1004.4 |
| 20260831201546 | 53 | 141 | 0.0 | 0.0 | 0.00 | 0.07 | 0.06 | 97 | 1004.4 |
| 20260831200044 | 54 | 141 | 0.0 | 0.0 | 0.00 | 0.07 | 0.06 | 97 | 1004.5 |
| 20260831194607 | 54 | 141 | 0.0 | 0.0 | 0.00 | 0.07 | 0.06 | 97 | 1004.5 |
| 20260831193042 | 54 | 141 | 0.0 | 0.0 | 0.00 | 0.07 | 0.06 | 96 | 1004.6 |
| 20260831191540 | 54 | 141 | 0.0 | 1.0 | 0.00 | 0.07 | 0.06 | 96 | 1004.6 |
| 20260831190044 | 55 | 141 | 0.0 | 0.0 | 0.00 | 0.09 | 0.06 | 95 | 1004.5 |
| 20260831184537 | 56 | 141 | 0.0 | 0.0 | 0.00 | 0.09 | 0.06 | 95 | 1004.5 |
| 20260831183035 | 56 | 141 | 0.0 | 0.0 | 0.00 | 0.09 | 0.06 | 95 | 1004.6 |
| 20260831181533 | 57 | 141 | 0.0 | 0.0 | 0.00 | 0.09 | 0.06 | 94 | 1004.6 |
| 20260831180031 | 57 | 141 | 0.0 | 0.0 | 0.00 | 0.18 | 0.06 | 93 | 1004.5 |
| 20260831174533 | 59 | 141 | 0.0 | 0.0 | 0.00 | 0.18 | 0.06 | 92 | 1004.5 |
| 20260831173031 | 60 | 141 | 0.0 | 0.0 | 0.00 | 0.18 | 0.06 | 89 | 1004.4 |
| 20260831171528 | 61 | 141 | 0.0 | 0.0 | 0.00 | 0.18 | 0.06 | 87 | 1004.3 |
| 20260831170029 | 63 | 141 | 0.0 | 1.0 | 0.00 | 0.31 | 0.06 | 84 | 1004.2 |
| 20260831164528 | 64 | 141 | 0.0 | 0.0 | 0.00 | 0.31 | 0.06 | 82 | 1004.2 |
| 20260831163031 | 65 | 141 | 0.0 | 2.0 | 0.00 | 0.31 | 0.06 | 81 | 1004.0 |
| 20260831161531 | 66 | 57 | 0.0 | 3.0 | 0.00 | 0.31 | 0.06 | 80 | 1004.0 |
| 20260831160026 | 65 | 340 | 1.0 | 4.0 | 0.00 | 0.31 | 0.06 | 81 | 1004.1 |
| 20260831154526 | 65 | 61 | 0.0 | 3.0 | 0.00 | 0.31 | 0.06 | 82 | 1004.1 |
| 20260831153025 | 65 | 358 | 0.0 | 5.0 | 0.00 | 0.31 | 0.06 | 82 | 1004.0 |
| 20260831151524 | 65 | 345 | 0.0 | 3.0 | 0.00 | 0.31 | 0.06 | 82 | 1004.0 |
| 20260831150024 | 64 | 28 | 1.0 | 4.0 | 0.00 | 0.31 | 0.06 | 83 | 1004.0 |
| 20260831144523 | 64 | 335 | 3.0 | 7.0 | 0.00 | 0.31 | 0.06 | 84 | 1004.2 |
| 20260831143023 | 64 | 12 | 1.0 | 7.0 | 0.00 | 0.31 | 0.06 | 83 | 1004.3 |
| 20260831141522 | 64 | 92 | 2.0 | 8.0 | 0.00 | 0.31 | 0.06 | 80 | 1004.2 |
| 20260831140022 | 65 | 341 | 1.0 | 6.0 | 0.00 | 0.31 | 0.06 | 80 | 1004.2 |
| 20260831134523 | 66 | 319 | 3.0 | 11.0 | 0.00 | 0.31 | 0.06 | 76 | 1004.2 |
| 20260831133021 | 67 | 321 | 3.0 | 8.0 | 0.00 | 0.31 | 0.06 | 74 | 1004.1 |
| 20260831131533 | 67 | 342 | 4.0 | 10.0 | 0.00 | 0.31 | 0.06 | 73 | 1004.1 |
| 20260831130018 | 66 | 335 | 1.0 | 10.0 | 0.00 | 0.31 | 0.06 | 74 | 1004.0 |
| 20260831124521 | 66 | 335 | 1.0 | 7.0 | 0.00 | 0.31 | 0.06 | 74 | 1004.0 |
| 20260831123015 | 66 | 338 | 4.0 | 8.0 | 0.00 | 0.31 | 0.06 | 74 | 1004.0 |
| 20260831121515 | 65 | 13 | 2.0 | 10.0 | 0.00 | 0.31 | 0.06 | 74 | 1004.1 |
| 20260831120011 | 64 | 14 | 3.0 | 7.0 | 0.00 | 0.31 | 0.06 | 77 | 1004.1 |
| 20260831114511 | 64 | 317 | 2.0 | 8.0 | 0.00 | 0.31 | 0.06 | 76 | 1004.2 |
| 20260831113008 | 62 | 63 | 1.0 | 5.0 | 0.00 | 0.31 | 0.06 | 80 | 1004.3 |
| 20260831111503 | 62 | 37 | 1.0 | 6.0 | 0.00 | 0.31 | 0.06 | 82 | 1004.2 |
| 20260831110001 | 61 | 9 | 1.0 | 8.0 | 0.00 | 0.31 | 0.06 | 82 | 1004.3 |
| 20260831104600 | 61 | 20 | 1.0 | 8.0 | 0.00 | 0.31 | 0.06 | 83 | 1004.2 |
| 20260831103058 | 61 | 58 | 1.0 | 7.0 | 0.00 | 0.31 | 0.06 | 85 | 1004.1 |
| 20260831101556 | 61 | 341 | 0.0 | 4.0 | 0.00 | 0.31 | 0.06 | 86 | 1003.9 |
| 20260831100055 | 61 | 322 | 2.0 | 6.0 | 0.00 | 0.31 | 0.06 | 86 | 1003.8 |
| 20260831094554 | 60 | 351 | 1.0 | 4.0 | 0.00 | 0.31 | 0.06 | 88 | 1003.8 |
| 20260831093054 | 60 | 65 | 0.0 | 4.0 | 0.00 | 0.31 | 0.06 | 89 | 1003.9 |
| 20260831091602 | 60 | 34 | 1.0 | 4.0 | 0.00 | 0.31 | 0.06 | 88 | 1004.0 |
| 20260831090052 | 59 | 60 | 1.0 | 8.0 | 0.00 | 0.31 | 0.06 | 89 | 1004.0 |